Regional Weather Roundup
Issued by NWS Newport/Morehead, NC

Current Version | Previous Version | Graphics & Text | Print | Product List | Glossary On
Versions: 1 2 3 4 5 6 7 8 9 10 11 12 13 14 15 16 17 18 19 20 21 22 23 24 25 26 27 28 29 30 31 32 33 34 35 36 37 38 39 40 41 42 43 44 45 46 47 48 49 50
000 ASUS42 KMHX 241510 RWRMHX WEATHER ROUNDUP FOR EASTERN NORTH CAROLINA NATIONAL WEATHER SERVICE NEWPORT/MOREHEAD CITY NC 1100 AM EDT FRI OCT 24 2014 NOTE: "FAIR" INDICATES FEW OR NO CLOUDS BELOW 12,000 FEET WITH NO SIGNIFICANT WEATHER AND/OR OBSTRUCTIONS TO VISIBILITY NCZ015>017-031-032-045>047-102-103-241600- NORTH COAST CITY SKY/WX TMP DP RH WIND PRES REMARKS EDENTON N/A 61 45 56 NW13G18 30.01 ELIZABETH CITY MOSUNNY 63 46 54 NW13 29.98F KITTY HAWK PTSUNNY 59 47 63 NW9G16 29.97S MANTEO PTSUNNY 58 47 67 NW9 29.99S $$ NCZ045>047-081-094-103-104-241600- CENTRAL COAST CITY SKY/WX TMP DP RH WIND PRES REMARKS FRISCO CLOUDY 59 50 72 NW9 30.00R SWANQUARTER N/A 59 N/A N/A W8G14 30.00S $$ NCZ095-097-098-100-101-241600- SOUTHERN COAST CITY SKY/WX TMP DP RH WIND PRES REMARKS BEAUFORT MOSUNNY 64 45 49 N12 30.04R CEDAR ISLAND N/A 61 N/A N/A NW10G16 30.06S JACKSONVILLE MOSUNNY 61 45 55 N6G17 30.05S PINEY ISLAND CLOUDY 64 46 52 NW13 30.01F WILMINGTON MOSUNNY 61 46 57 NE7 30.05S $$ NCZ011>013-027>030-043-044-078>080-089-090>093-098-241600- COASTAL PLAIN CITY SKY/WX TMP DP RH WIND PRES REMARKS AHOSKIE MOSUNNY 58 46 63 CALM 30.03S CLINTON MOSUNNY 60 48 65 CALM 30.06F ELIZABETHTOWN PTSUNNY 56 46 69 CALM 30.07S GOLDSBORO MOSUNNY 59 51 72 NW5 30.04F GREENVILLE MOSUNNY 61 45 55 N3 30.06S HAVELOCK PTSUNNY 64 46 52 N5 30.05R KENANSVILLE MOSUNNY 59 45 58 N3 30.06F KINSTON SUNNY 59 46 63 NW3 30.06S NEW BERN MOSUNNY 62 48 60 N3 30.05S RICHLANDS MOSUNNY 57 45 62 CALM 30.06S ROCKY MOUNT PTSUNNY 60 45 57 NW7 30.05S WASHINGTON PTSUNNY 58 47 66 CALM 30.04S WHITEVILLE CLOUDY 57 45 64 N3 30.06S $$ AMZ130-135-150-152-154-156-158-170-250-252-270-ANZ085-086-088-633-658-670-241600- MARINE OBSERVATIONS STATION/POSITION TIME TEMP WIND PRES WAVE SWELL AIR SEA DIR/SP/G HT/PER HT/PER (UTC) (F) (DEG/KT/KT) (MB) (FT/S) (FT/S) CHESAPEAKE LIGHT 1400 59 330/ 22/ 24 1014.6 64 E VA BEACH 1500 61 67 330/ 19/ 23 1012.8 7/ 8 2/10 DUCK 1500 56 66 300/ 12/ 15 1014.4 2 E DUCK 1500 N/A 4/ 7 10 NE DUCK 1500 68 N/A 5/ 6 OREGON INLET 1500 58 63 320/ 12/ 18 1015.2 13E OREGON INLT 1500 70 N/A 6/ 8 2/11 HATTERAS CG 1500 59 63 320/ 16/ 19 1016.3 DIAMOND BUOY 1500 62 310/ 14/ 17 1016.0 4/ 9 2/ 9 17 S OCRACOKE NOT AVBL CAPE LOOKOUT 1400 59 360/ 9/ 12 1016.3 BEAUFORT LAB 1500 62 68 10/ 9/ 12 1016.4 30 SE NEW RIVER 1500 64 75 30/ 12/ 14 1016.7 4/10 3/10 5 SE WRIGHTSVLE 1500 58 72 20/ 10/ 12 N/A 225 S CAPE HAT 1355 73 77 310/ 8/ 10 1016.4 5/10 5/10 41 SE CHARLESTON 1500 69 78 10/ 8/ 10 1017.2 3/11 3/11 $$

USA.gov is the U.S. government's official web portal to all federal, state and local government web resources and services.